Weather History for Valparaiso, FL

Change the Weather History Date:

Tuesday, April 30, 2013

  Actual Average Record
Temperature  
Mean Temperature 72 °F -  
Max Temperature 81 °F 81 °F 92 °F (1985)
Min Temperature 63 °F 55 °F 42 °F (1965)
Cooling Degree Days 7    
Growing Degree Days 22 (Base 50)    
Moisture  
Dew Point 67 °F    
Average Humidity 84    
Maximum Humidity 97    
Minimum Humidity 56    
Precipitation  
Precipitation 0.00 in - - ()
Sea Level Pressure  
Sea Level Pressure 29.97 in    
Wind  
Wind Speed 4 mph (ESE)    
Max Wind Speed 13 mph    
Max Gust Speed -    
Visibility 10 miles    
Events Rain    
Averages and records for this station are not official NWS values.
T = Trace of Precipitation, MM = Missing Value Source: NWS Daily Summary

Daily Weather History Graph

Daily Weather History Graph

Search for Another Location

Airport:

Trip Planner

Search our weather history database for the weather conditions in past years. The results will help you decide how hot, cold, wet, or windy it might be!

Date:

Astronomy

Apr. 30, 2013 Rise Set
Actual Time 6:03 AM CDT 7:23 PM CDT
Civil Twilight 5:37 AM CDT 7:49 PM CDT
Nautical Twilight 5:07 AM CDT 8:19 PM CDT
Astronomical Twilight 4:35 AM CDT 8:51 PM CDT
Moon No Moon Rise 10:35 AM CDT (4/30)
Length of Visible Light 14h 11m
Length of Day
13h 20m
Waning Gibbous, 70% of the Moon is Illuminated
Apr 30
Waning Gibbous
May 2
Last Quarter
May 9
New
May 17
First Quarter
May 24
Full

Hourly Weather History & Observations

Time (CDT) Temp. Heat Index Dew Point Humidity Pressure Visibility Wind Dir Wind Speed Gust Speed Precip Events Conditions
12:56 AM 68.7 °F - 66.7 °F 93% 29.95 in 10.0 mi Calm Calm - N/A   Mostly Cloudy
1:58 AM 67.5 °F - 66.0 °F 95% 29.95 in 10.0 mi Calm Calm - N/A   Scattered Clouds
2:55 AM 67.1 °F - 65.8 °F 96% 29.95 in 10.0 mi Calm Calm - N/A   Partly Cloudy
3:55 AM 64.8 °F - 63.9 °F 97% 29.95 in 10.0 mi Calm Calm - N/A   Scattered Clouds
4:55 AM 63.1 °F - 62.4 °F 97% 29.95 in 10.0 mi Calm Calm - N/A   Partly Cloudy
5:26 AM 64.4 °F - 62.6 °F 94% 29.94 in 10.0 mi ENE 4.6 mph - N/A   Mostly Cloudy
5:55 AM 63.9 °F - 63.0 °F 97% 29.95 in 10.0 mi NNE 3.5 mph - N/A   Mostly Cloudy
6:21 AM 64.4 °F - 62.6 °F 94% 29.95 in 10.0 mi Calm Calm - N/A   Mostly Cloudy
6:55 AM 65.5 °F - 64.4 °F 96% 29.98 in 10.0 mi Calm Calm - N/A   Mostly Cloudy
7:29 AM 68.0 °F - 66.2 °F 94% 29.98 in 7.0 mi ENE 3.5 mph - N/A   Scattered Clouds
7:51 AM 68.0 °F - 66.2 °F 94% 29.98 in 10.0 mi ENE 4.6 mph - N/A   Mostly Cloudy
7:55 AM 68.5 °F - 66.2 °F 92% 30.00 in 10.0 mi ENE 5.8 mph - N/A   Overcast
8:17 AM 68.0 °F - 66.2 °F 94% 29.98 in 6.0 mi East 4.6 mph - N/A   Overcast
8:55 AM 70.2 °F - 67.5 °F 91% 29.99 in 8.0 mi East 5.8 mph - N/A   Mostly Cloudy
9:27 AM 71.6 °F - 68.0 °F 88% 29.98 in 10.0 mi ENE 4.6 mph - N/A   Scattered Clouds
9:59 AM 74.5 °F - 67.1 °F 78% 29.99 in 10.0 mi East 6.9 mph - N/A   Scattered Clouds
10:11 AM 75.2 °F - 68.0 °F 78% 29.98 in 10.0 mi SE 8.1 mph - N/A   Light Drizzle
10:13 AM 75.2 °F - 68.0 °F 78% 29.98 in 10.0 mi SE 8.1 mph - N/A   Clear
10:55 AM 76.3 °F - 68.0 °F 75% 30.00 in 10.0 mi SE 6.9 mph - N/A   Scattered Clouds
11:54 AM 77.5 °F - 68.0 °F 72% 29.98 in 10.0 mi SE 6.9 mph - N/A   Scattered Clouds
11:55 AM 77.5 °F - 68.0 °F 72% 29.98 in 10.0 mi SE 6.9 mph - N/A   Scattered Clouds
12:55 PM 78.8 °F - 66.9 °F 67% 29.98 in 10.0 mi SSE 8.1 mph - N/A   Mostly Cloudy
1:55 PM 80.2 °F 82.2 °F 65.5 °F 61% 29.97 in 10.0 mi SE 9.2 mph - N/A   Mostly Cloudy
2:55 PM 81.0 °F 82.5 °F 64.0 °F 56% 29.95 in 10.0 mi South 12.7 mph - N/A   Mostly Cloudy
3:55 PM 79.5 °F - 65.3 °F 62% 29.94 in 10.0 mi SSE 12.7 mph - N/A   Mostly Cloudy
4:55 PM 76.8 °F - 68.2 °F 75% 29.94 in 10.0 mi SSE 8.1 mph - N/A   Overcast
5:55 PM 74.1 °F - 68.5 °F 83% 29.95 in 10.0 mi SSE 8.1 mph - N/A   Overcast
6:05 PM 73.4 °F - 69.8 °F 88% 29.95 in 10.0 mi SE 9.2 mph - N/A Rain Light Rain Showers
6:20 PM 73.4 °F - 69.8 °F 88% 29.95 in 10.0 mi SSE 5.8 mph - N/A   Overcast
6:55 PM 73.4 °F - 68.4 °F 84% 29.96 in 10.0 mi ESE 8.1 mph - 0.00 in   Overcast
7:24 PM 73.4 °F - 68.0 °F 83% 29.96 in 10.0 mi ESE 6.9 mph - N/A Rain Light Rain Showers
7:33 PM 73.4 °F - 68.0 °F 83% 29.96 in 10.0 mi ESE 4.6 mph - N/A   Overcast
7:55 PM 73.0 °F - 67.6 °F 83% 29.98 in 10.0 mi SE 5.8 mph - 0.00 in   Overcast
8:55 PM 73.4 °F - 67.3 °F 81% 29.98 in 10.0 mi East 5.8 mph - N/A   Overcast
9:55 PM 73.4 °F - 68.0 °F 83% 29.98 in 10.0 mi East 5.8 mph - N/A   Overcast
10:55 PM 72.9 °F - 67.6 °F 84% 29.97 in 10.0 mi East 4.6 mph - N/A   Overcast
11:55 PM 72.3 °F - 67.8 °F 86% 29.96 in 10.0 mi ENE 4.6 mph - N/A   Overcast